Location: City of Clear Lake
(43.1347°N, 93.3740°W)
Time: 03:01:42
(UTC+00:00)

ACS3 Solar Sail - Pass Details

Date: 13 October 2024
Orbit: 961 x 1022 km, 97.5° (Epoch: 03 November)

Event Time Altitude Azimuth Distance (km) Brightness Sun altitude
Exits shadow 01:35:55 43° 117° (ESE) 1,405 2.1 -22.9°
Maximum altitude 01:37:34 54° 71° (ENE) 1,232 2.0 -23.2°
Drops below altitude 10° 01:43:47 10° 356° (N) 2,838 4.4 -24.3°
Sets 01:46:21 0° 353° (N) 3,792 5.1 -24.7°
